[[{"header":{"parameterUnit":"m.s-1","parameterCategory":1,"la1":30.2991,"la2":30.254,"lo1":-89.0895,"lo2":-89.0444,"dy":0.0017,"dx":0.0017,"nx":28,"ny":28,"refTime":"2023-09-30T09:00:00:Z","depth":0,"parameterNumber":2,"parameterNumberName":"U-component_of_WINDS"},"data":[0,0,0,0,0,0,0,0,0,0,0,0,0,0,0,0,0,0,0,0,0,0,0,0,0,0,0,0,0,0,0,0,0,0,0,0,0,0,0,0,0,0,0,0,0,0,0,0,0,0,0,0,0,0,0,0,0,0,-2.5933,-2.5932,0,-2.582,-2.5819,-2.5818,-2.5667,-2.5665,-2.5662,-2.566,-2.5544,-2.5543,-2.5542,0,0,0,0,0,0,0,0,0,0,0,0,0,-2.6018,-2.6018,-2.5933,-2.5932,-2.5931,-2.5821,-2.5819,-2.5817,-2.5668,-2.5665,-2.5662,-2.5659,-2.5544,-2.5543,-2.5542,0,0,0,0,0,0,0,0,0,0,0,0,0,-2.5951,-2.6017,-2.5934,-2.5843,-2.5833,-2.5821,-2.5819,-2.5817,-2.5668,-2.5664,-2.5661,-2.5657,-2.5544,-2.5543,-2.5542,-2.5609,0,0,-2.5538,-2.5538,0,0,0,0,0,0,0,0,-2.5955,-2.5948,-2.5857,-2.5849,-2.5838,-2.5754,-2.5806,-2.5747,-2.5669,-2.5731,-2.566,-2.5655,-2.5617,-2.5609,-2.5596,-2.5604,-2.5599,-2.5538,-2.5537,-2.5537,-2.5537,0,0,0,0,0,0,0,-2.596,-2.5952,-2.5888,-2.5856,-2.5845,-2.5807,-2.5793,-2.5794,-2.5696,-2.5725,-2.5714,-2.5703,-2.5611,-2.5598,-2.5592,-2.5597,-2.5538,-2.5537,-2.5536,-2.5536,-2.5655,-2.5659,0,0,0,0,0,0,-2.5978,-2.5957,-2.5892,-2.5885,-2.5889,-2.5809,-2.5793,-2.5785,-2.5696,-2.5678,-2.5706,-2.5696,-2.5601,-2.5594,-2.5588,-2.5662,-2.5537,-2.5536,-2.5535,-2.5651,-2.5656,-2.566,0,0,0,0,0,0,-2.5981,-2.5974,-2.5897,-2.5918,-2.5905,-2.5811,-2.5803,-2.5785,-2.5771,-2.5681,-2.5663,-2.5711,-2.5598,-2.5589,-2.5605,-2.5655,-2.5535,-2.5534,-2.5647,-2.5653,-2.5658,-2.581,0,0,0,0,0,0,-2.5984,-2.5976,-2.6001,-2.592,-2.5905,-2.5917,-2.5806,-2.5785,-2.577,-2.5756,-2.5681,-2.5665,-2.5595,-2.5608,-2.5604,-2.5652,-2.5533,-2.5642,-2.5649,-2.5656,-2.58,-2.5821,-2.5838,0,0,0,0,0,-2.5987,-2.6048,-2.6003,-2.5996,-2.5934,-2.592,-2.5912,-2.583,-2.5775,-2.5799,-2.5741,-2.5667,-2.565,-2.5611,-2.5605,-2.5653,-2.5638,-2.5647,-2.5656,-2.5792,-2.5817,-2.5837,0,0,0,0,0,0,-2.6137,-2.6036,-2.5985,-2.6021,-2.5981,-2.5895,-2.5923,-2.5858,-2.5833,-2.5821,-2.572,-2.5704,-2.5733,-2.5694,-2.5652,-2.5714,-2.5633,-2.5641,-2.5739,-2.5761,-2.578,-2.5789,-2.5532,0,0,0,0,0,-2.6175,-2.6172,-2.6083,-2.6124,-2.6106,-2.6019,-2.6009,-2.595,-2.5904,-2.5886,-2.5829,-2.5787,-2.5771,-2.5764,-2.5745,-2.5793,-2.5775,-2.5824,-2.5842,-2.5858,-2.5867,-2.589,-2.5911,-2.5689,-2.5688,-2.5688,0,0,-2.6252,-2.6196,-2.62,-2.6152,-2.6114,-2.6114,-2.6005,-2.6009,-2.6008,-2.5886,-2.5898,-2.5855,-2.5801,-2.5834,-2.5846,-2.5803,-2.5924,-2.5869,-2.5883,-2.5882,-2.5901,-2.5923,-2.5941,-2.5694,-2.5693,-2.5692,0,0,-2.6393,-2.635,-2.6379,-2.6343,-2.6286,-2.6227,-2.6235,-2.6159,-2.6126,-2.6136,-2.6045,-2.6041,-2.6018,-2.5983,-2.5963,-2.609,-2.6022,-2.6087,-2.6185,-2.6209,-2.6227,-2.6242,-2.6289,-2.6307,-2.6095,-2.6096,-2.6096,0,-2.6496,-2.6492,-2.6402,-2.6412,-2.6394,-2.6284,-2.6313,-2.6282,-2.6222,-2.6212,-2.6165,-2.6133,-2.6089,-2.6112,-2.6144,-2.613,-2.6136,-2.6096,-2.6232,-2.6246,-2.6259,-2.6302,-2.632,-2.6104,-2.6103,-2.6102,-2.6101,0,-2.6622,-2.662,-2.6651,-2.6597,-2.6581,-2.6601,-2.6515,-2.651,-2.6451,-2.6398,-2.641,-2.6353,-2.6321,-2.6322,-2.6264,-2.6338,-2.6313,-2.625,-2.6167,-2.629,-2.6329,-2.6345,-2.6116,-2.6113,-2.6111,-2.6108,0,0,-2.6855,-2.6751,-2.6764,-2.6738,-2.6667,-2.6664,-2.6678,-2.6647,-2.6646,-2.6608,-2.6618,-2.66,-2.6542,-2.6519,-2.6456,-2.6477,-2.6583,-2.6411,-2.6409,-2.6447,-2.6662,-2.6711,-2.6732,-2.6537,-2.654,-2.6542,-2.6667,0,-2.6984,-2.7003,-2.6923,-2.6963,-2.6961,-2.6856,-2.6868,-2.6826,-2.6776,-2.6767,-2.6711,-2.6701,-2.6624,-2.6609,-2.6625,-2.6567,-2.6625,-2.6557,-2.6546,-2.6547,-2.6565,-2.6752,-2.6804,-2.6924,-2.6681,-2.6684,-2.6686,0,-2.7136,-2.7107,-2.7148,-2.7075,-2.7071,-2.7084,-2.7049,-2.7042,-2.6992,-2.6954,-2.6928,-2.6856,-2.6865,-2.6785,-2.6796,-2.6751,-2.6741,-2.6712,-2.6715,-2.6712,-2.6625,-2.6756,-2.6961,-2.698,-2.6708,-2.6707,-2.6705,0,-2.7305,-2.7275,-2.7296,-2.7277,-2.7192,-2.7204,-2.7169,-2.7115,-2.7102,-2.7071,-2.7061,-2.7032,-2.7017,-2.6996,-2.6918,-2.6866,-2.6938,-2.6851,-2.6908,-2.691,-2.6929,-2.693,-2.7138,-2.6921,-2.6921,-2.692,-2.692,0,-2.7457,-2.7487,-2.737,-2.7384,-2.7413,-2.732,-2.7352,-2.7306,-2.726,-2.7262,-2.7168,-2.7172,-2.7068,-2.706,-2.6999,-2.7018,-2.7011,-2.6981,-2.6965,-2.6991,-2.6995,-2.6985,-2.6975,-2.6925,-2.6924,-2.6923,-2.6922,0,-2.7651,-2.7574,-2.759,-2.7508,-2.7489,-2.7514,-2.7444,-2.7453,-2.7396,-2.7401,-2.7396,-2.7308,-2.7294,-2.7214,-2.7181,-2.714,-2.7182,-2.7148,-2.72,-2.7189,-2.7251,-2.7247,-2.7461,-2.7485,-2.7252,-2.7254,-2.7256,0,-2.7755,-2.7775,-2.7696,-2.7691,-2.766,-2.7653,-2.7639,-2.7548,-2.7537,-2.7482,-2.7497,-2.7476,-2.7454,-2.7437,-2.737,-2.7345,-2.7311,-2.7387,-2.7306,-2.7332,-2.7314,-2.7315,-2.7317,-2.7406,-2.7409,-2.7411,-2.7413,0,-2.7948,-2.7909,-2.7892,-2.7863,-2.7849,-2.7821,-2.7787,-2.7789,-2.7687,-2.768,-2.7665,-2.7649,-2.7615,-2.7596,-2.7559,-2.7522,-2.7452,-2.7439,-2.7451,-2.7479,-2.7509,-2.7495,-2.7249,-2.7435,-2.7433,-2.7431,-2.743,-2.7429,-2.81,-2.8114,-2.806,-2.8045,-2.801,-2.7981,-2.7986,-2.793,-2.7916,-2.7883,-2.7829,-2.7822,-2.7771,-2.7714,-2.7684,-2.7677,-2.7635,-2.7653,-2.7657,-2.7664,-2.7678,-2.7508,-2.7669,-2.7668,-2.7668,-2.7667,-2.7667,0,-2.8289,-2.825,-2.8237,-2.8193,-2.8181,-2.8115,-2.8074,-2.8069,-2.8064,-2.8023,-2.8003,-2.7987,-2.7967,-2.7899,-2.7872,-2.788,-2.7847,-2.7876,-2.7875,-2.7868,-2.7715,-2.7708,-2.7903,-2.7903,-2.7903,-2.7903,-2.7903,-2.7903,-2.8387,-2.8406,-2.8361,-2.8362,-2.8321,-2.8314,-2.8297,-2.827,-2.8236,-2.8222,-2.8206,-2.8161,-2.8109,-2.8077,-2.8057,-2.8037,-2.8032,-2.8073,-2.8043,-2.7902,-2.7879,-2.7857,-2.785,-2.8072,-2.8073,-2.8197,-2.8198,-2.8199]},{"header":{"parameterUnit":"m.s-1","parameterCategory":1,"la1":30.2991,"la2":30.254,"lo1":-89.0895,"lo2":-89.0444,"dy":0.0017,"dx":0.0017,"nx":28,"ny":28,"refTime":"2023-09-30T09:00:00:Z","depth":0,"parameterNumber":3,"parameterNumberName":"V-component_of_WINDS"},"data":[0,0,0,0,0,0,0,0,0,0,0,0,0,0,0,0,0,0,0,0,0,0,0,0,0,0,0,0,0,0,0,0,0,0,0,0,0,0,0,0,0,0,0,0,0,0,0,0,0,0,0,0,0,0,0,0,0,0,-1.1653,-1.1653,0,-1.1711,-1.1712,-1.1712,-1.1713,-1.1712,-1.1711,-1.171,-1.1769,-1.1771,-1.1773,0,0,0,0,0,0,0,0,0,0,0,0,0,-1.1539,-1.1541,-1.1652,-1.1653,-1.1654,-1.1711,-1.1712,-1.1713,-1.1713,-1.1712,-1.1711,-1.171,-1.1768,-1.1771,-1.1773,0,0,0,0,0,0,0,0,0,0,0,0,0,-1.1592,-1.1542,-1.1652,-1.1661,-1.1662,-1.1711,-1.1712,-1.1713,-1.1713,-1.1712,-1.1711,-1.171,-1.1767,-1.177,-1.1774,-1.1817,0,0,-1.1784,-1.1786,0,0,0,0,0,0,0,0,-1.1589,-1.1596,-1.1659,-1.166,-1.1662,-1.1703,-1.1693,-1.1748,-1.1713,-1.1694,-1.171,-1.1709,-1.1748,-1.1753,-1.1766,-1.182,-1.1822,-1.1784,-1.1786,-1.1788,-1.1789,0,0,0,0,0,0,0,-1.1585,-1.1594,-1.1676,-1.166,-1.1662,-1.1661,-1.1668,-1.1704,-1.1726,-1.1695,-1.1695,-1.1702,-1.1748,-1.1763,-1.1767,-1.1823,-1.1784,-1.1787,-1.1789,-1.1791,-1.1916,-1.1917,0,0,0,0,0,0,-1.158,-1.1591,-1.1674,-1.1677,-1.1622,-1.1664,-1.1671,-1.1691,-1.1726,-1.173,-1.1703,-1.1702,-1.1758,-1.1764,-1.177,-1.1823,-1.1788,-1.1791,-1.1793,-1.1915,-1.1916,-1.1918,0,0,0,0,0,0,-1.1578,-1.1588,-1.1671,-1.1634,-1.1645,-1.1667,-1.169,-1.1693,-1.1707,-1.1732,-1.1736,-1.1714,-1.1757,-1.1765,-1.1806,-1.1825,-1.1793,-1.1796,-1.1913,-1.1915,-1.1917,-1.193,0,0,0,0,0,0,-1.1575,-1.1587,-1.1604,-1.1635,-1.1647,-1.1707,-1.1691,-1.1695,-1.1713,-1.1713,-1.1743,-1.1747,-1.1757,-1.1801,-1.1809,-1.1829,-1.1798,-1.1912,-1.1914,-1.1916,-1.1928,-1.1932,-1.1936,0,0,0,0,0,-1.1571,-1.1605,-1.1605,-1.1615,-1.1669,-1.1708,-1.1715,-1.1726,-1.1715,-1.1732,-1.1748,-1.1746,-1.1822,-1.1805,-1.1814,-1.1836,-1.191,-1.1913,-1.1916,-1.1926,-1.1932,-1.1936,0,0,0,0,0,0,-1.1575,-1.1609,-1.1609,-1.1655,-1.1678,-1.1708,-1.173,-1.1731,-1.1758,-1.1756,-1.1768,-1.1775,-1.1815,-1.1829,-1.181,-1.188,-1.1865,-1.187,-1.1869,-1.1874,-1.1878,-1.1874,-1.1801,0,0,0,0,0,-1.1582,-1.1611,-1.1639,-1.1676,-1.1688,-1.1707,-1.1724,-1.1731,-1.1756,-1.1766,-1.1785,-1.1809,-1.1838,-1.1857,-1.1885,-1.193,-1.1937,-1.195,-1.1953,-1.1957,-1.1961,-1.1986,-1.1992,-1.1927,-1.1927,-1.1927,0,0,-1.1595,-1.1617,-1.1635,-1.1678,-1.1697,-1.1727,-1.1715,-1.1748,-1.177,-1.1771,-1.1811,-1.1825,-1.1853,-1.1896,-1.1916,-1.1909,-1.198,-1.196,-1.1963,-1.1965,-1.199,-1.1996,-1.2001,-1.1929,-1.1929,-1.1929,0,0,-1.1634,-1.1654,-1.1688,-1.1707,-1.1737,-1.1749,-1.1757,-1.1787,-1.1797,-1.1837,-1.1838,-1.1865,-1.1915,-1.1935,-1.1951,-1.1999,-1.1998,-1.2007,-1.2028,-1.2052,-1.2058,-1.2062,-1.2079,-1.2085,-1.2011,-1.2011,-1.2011,0,-1.1647,-1.1693,-1.1704,-1.1737,-1.1756,-1.1758,-1.1792,-1.1811,-1.1848,-1.186,-1.1852,-1.1915,-1.1934,-1.1982,-1.1994,-1.2007,-1.2016,-1.2004,-1.2056,-1.2061,-1.2065,-1.2082,-1.2088,-1.2012,-1.2012,-1.2012,-1.2012,0,-1.1707,-1.1739,-1.1762,-1.1799,-1.182,-1.1853,-1.1869,-1.1889,-1.1894,-1.1907,-1.1948,-1.1971,-1.2004,-1.2016,-1.202,-1.2065,-1.2059,-1.2054,-1.2039,-1.2072,-1.2088,-1.2094,-1.2014,-1.2014,-1.2013,-1.2013,0,0,-1.1751,-1.1794,-1.1802,-1.1819,-1.1852,-1.1877,-1.191,-1.1942,-1.196,-1.1985,-1.2013,-1.2056,-1.2051,-1.2069,-1.2076,-1.2098,-1.2134,-1.2089,-1.209,-1.2097,-1.2185,-1.219,-1.2197,-1.2134,-1.2135,-1.2136,-1.2183,0,-1.1794,-1.1854,-1.1865,-1.1917,-1.1946,-1.1949,-1.1978,-1.2001,-1.2014,-1.2041,-1.2055,-1.2086,-1.2076,-1.2088,-1.2109,-1.2125,-1.2152,-1.2122,-1.216,-1.2161,-1.2153,-1.2205,-1.221,-1.2253,-1.2189,-1.219,-1.2191,0,-1.1853,-1.188,-1.1935,-1.1965,-1.1977,-1.2003,-1.2034,-1.206,-1.2086,-1.2094,-1.2116,-1.212,-1.2154,-1.2138,-1.2185,-1.2165,-1.2181,-1.2191,-1.2193,-1.2197,-1.2178,-1.2211,-1.2266,-1.2273,-1.2201,-1.22,-1.2199,0,-1.1879,-1.193,-1.197,-1.1984,-1.2019,-1.2038,-1.2053,-1.2078,-1.2098,-1.2125,-1.2137,-1.2168,-1.2185,-1.2208,-1.2221,-1.2207,-1.2267,-1.2252,-1.2275,-1.2275,-1.2287,-1.2286,-1.2347,-1.2297,-1.2297,-1.2297,-1.2297,0,-1.1927,-1.196,-1.1983,-1.2007,-1.2044,-1.2057,-1.2094,-1.2109,-1.2131,-1.2158,-1.2163,-1.2188,-1.2203,-1.223,-1.224,-1.2278,-1.2285,-1.2293,-1.2295,-1.2293,-1.2292,-1.2304,-1.2301,-1.2299,-1.2299,-1.2298,-1.2298,0,-1.1963,-1.1979,-1.2023,-1.2053,-1.2061,-1.2088,-1.2113,-1.2137,-1.215,-1.2184,-1.2193,-1.2214,-1.2246,-1.2261,-1.2301,-1.2308,-1.2351,-1.2351,-1.2343,-1.2343,-1.2366,-1.2364,-1.2436,-1.2447,-1.239,-1.2391,-1.2391,0,-1.1992,-1.2018,-1.2051,-1.207,-1.2086,-1.2116,-1.2136,-1.215,-1.217,-1.2202,-1.2222,-1.2255,-1.2282,-1.2333,-1.2352,-1.2383,-1.2384,-1.2407,-1.2388,-1.2385,-1.2384,-1.2383,-1.2386,-1.241,-1.2411,-1.2411,-1.2412,0,-1.2042,-1.2049,-1.2078,-1.211,-1.2134,-1.2159,-1.2184,-1.2199,-1.2216,-1.2239,-1.2273,-1.2294,-1.2335,-1.2367,-1.2399,-1.2415,-1.2416,-1.2418,-1.2425,-1.2422,-1.2417,-1.242,-1.2352,-1.2416,-1.2415,-1.2415,-1.2415,-1.2415,-1.2076,-1.21,-1.2127,-1.2159,-1.2179,-1.2203,-1.2226,-1.2243,-1.2271,-1.2306,-1.2313,-1.2348,-1.2374,-1.2418,-1.2434,-1.2463,-1.2457,-1.2467,-1.247,-1.2472,-1.2474,-1.2412,-1.2468,-1.2468,-1.2468,-1.2468,-1.2468,0,-1.2127,-1.2145,-1.2174,-1.2209,-1.2234,-1.2234,-1.2262,-1.2283,-1.2314,-1.2339,-1.2365,-1.2404,-1.2436,-1.2457,-1.2489,-1.2508,-1.2509,-1.2516,-1.2515,-1.2518,-1.2477,-1.2467,-1.2514,-1.2514,-1.2514,-1.2514,-1.2514,-1.2514,-1.2156,-1.2196,-1.2206,-1.2256,-1.2273,-1.2309,-1.2325,-1.2346,-1.2366,-1.2409,-1.2436,-1.245,-1.2473,-1.2507,-1.2536,-1.2542,-1.2553,-1.256,-1.2565,-1.2526,-1.2521,-1.2517,-1.2508,-1.2563,-1.2563,-1.2605,-1.2605,-1.2606]}]]